COSMOS 1691 DEB, 43315

Orbit data source: Space-Track

COSMOS 1691 DEB, 43315 is space debris in LEO originally from a launch on Wed, 09 Oct 1985 UTC launched from the Plesetsk Missile And Space Complex (PKMTR). Debris objects in space refer to the collection of defunct objects orbiting the Earth. Examples of debris include non-operational satellites, rocket bodies, and fragments generated from explosions, collisions, or faulty payload assembly.

Loading next visibility...
Identifier
43315, 1985-094Z
Orbit
LEO
Country
Flag of CISCIS
Related business
Manufacturer
Unknown
Mission
Spacecraft
Bus & Motor
Unknown
Mass
Unknown
Launch date (UTC)
1985-10-09 (40 years ago)
Launch vehicle
Unknown
Launch site
Plesetsk Missile And Space Complex (PKMTR)
Object type
Payload
Rocket body
Debris
Shape & HBR
Unknown shape, 0.1 m
Radar Cross Section
Small (<0.1 m²)

Expand to show TLE details & history
Last TLE update: 14 hours ago

TLE from 14 hours ago
0 COSMOS 1691 DEB
1 43315U 85094Z   25295.01771582  .00000327  00000-0  16096-2 0  9992
2 43315  82.5622 309.6347 0024409 149.7045 210.5467 12.69148010551631
Epoch: 2025-10-22T00:25Z
TLE epoch observation values (Epoch: 2025-10-22T00:25:30.646Z)
Latitude
-0.00002°
Longitude
-87.44035°
Altitude
1,404.487 km
Speed
7.15 km/s
True Right ascension
20h 38m 32s
True Declination
0° 00' 00"
Sunlit
Object was in daylight at epoch
Visualization orbit readout
Latitude
Unknown
Longitude
Unknown
Altitude
Unknown
Speed
Unknown
Apparent Right ascension
Unknown
Apparent Declination
Unknown
Sunlit
N/A
Visualization observer readout
Local Sidereal Time
09:55:05
Azimuth
Unknown
Elevation
Unknown
Doppler factor
Unknown
Orbital elements
Apogee altitude
1,401.668 km
Perigee altitude
1,363.781 km
Semi-major axis
7,760.861 km
Eccentricity
0.00244
Inclination
82.5622°
RAAN
309.6347°
Arg. of periapsis
149.7045°
True anomaly
210.40491°
Mean anomaly
210.5467°
Eccentric anomaly
210.47577°
Mean motion
3.17452 °/min
Orbital period
113.4 mins
BSTAR
0.0016096
Loading maneuver chart data...
Computing Atmospheric mass density...
Loading historical data...
Loading historical data...
Loading historical data...
Loading historical data...
Loading historical data...
Loading historical data...
Loading historical data...

Documentation

Showing up to 5 results
|